KINEIS-3B

Last updated on Thu Oct 23 2025 00:02:50 GMT+0000 (Coordinated Universal Time)

1 61224U 24172E 25295.49042985 .00003892 00000+0 62181-3 0 9997 2 61224 98.0290 23.3502 0003400 105.3616 254.7967 14.72410272 58372
UTC large
Height (km)
Speed (km/s)
/
Latitude / Longitude
Inclination (degrees)
Orbital Period (minutes)
Azimuth
Elevation
Range (km)
Doppler Factor

Next 0 passes for location: London (51.5072 / 0.1276)

Sorry there are no passes over London.